Mexico City Airport, Mexico

2:44 PM CST on January 16, 2018 (GMT -0600)
Lic Benito Juarez International

Weather History for MMMX - August, 2011

Change the Weather History Date:

Tuesday, August 2, 2011

  Actual Average Record
Temperature  
Mean Temperature 68 °F -  
Max Temperature 77 °F 72 °F 78 °F (1997)
Min Temperature 59 °F 53 °F 53 °F (2002)
Cooling Degree Days 3    
Growing Degree Days 18 (Base 50)    
Moisture  
Dew Point 50 °F    
Average Humidity 60    
Maximum Humidity 82    
Minimum Humidity 36    
Precipitation  
Precipitation 0.00 in - - ()
Sea Level Pressure  
Sea Level Pressure 30.14 in    
Wind  
Wind Speed 8 mph ()    
Max Wind Speed 23 mph    
Max Gust Speed 34 mph    
Visibility 13.6 miles    
Events      
Averages and records for this station are not official NWS values.
T = Trace of Precipitation, MM = Missing Value Source: Averaged Metar Reports

Daily Weather History Graph

Daily Weather History Graph

Search for Another Location

Airport or City:

Trip Planner

Search our weather history database for the weather conditions in past years. The results will help you decide how hot, cold, wet, or windy it might be!

Date:

Astronomy

Aug. 02, 2011 Rise Set
Actual Time 7:12 AM CDT 8:12 PM CDT
Civil Twilight 6:49 AM CDT 8:35 PM CDT
Nautical Twilight 6:22 AM CDT 9:02 PM CDT
Astronomical Twilight 5:53 AM CDT 9:31 PM CDT
Moon 10:03 AM CDT (8/2) 10:23 PM CDT (8/2)
Length of Visible Light 13h 45m
Length of Day
12h 59m
Waxing Crescent, 12% of the Moon is Illuminated
Aug 2
Waxing Crescent
Aug 6
First Quarter
Aug 13
Full
Aug 21
Last Quarter
Aug 28
New

Hourly Weather History & Observations

Time (CDT) Temp. Dew Point Humidity Pressure Visibility Wind Dir Wind Speed Gust Speed Precip Events Conditions
12:42 AM 62.6 °F 51.8 °F 68% 29.84 in 15.0 mi WNW 6.9 mph - N/A   Mostly Cloudy
1:47 AM 60.8 °F 51.8 °F 72% 30.33 in 15.0 mi NNW 3.5 mph - N/A   Mostly Cloudy
2:49 AM 59.0 °F 53.6 °F 82% 30.32 in 15.0 mi NW 6.9 mph - N/A   Mostly Cloudy
3:48 AM 59.0 °F 53.6 °F 82% 29.81 in 15.0 mi NNW 8.1 mph - N/A   Mostly Cloudy
4:46 AM 59.0 °F 51.8 °F 77% 30.28 in 15.0 mi NNW 9.2 mph - N/A   Scattered Clouds
5:47 AM 59.0 °F 51.8 °F 77% 30.27 in 5.0 mi NNW 9.2 mph - N/A   Scattered Clouds
5:52 AM 59.0 °F 51.8 °F 77% 30.27 in 15.0 mi NNW 4.6 mph - N/A   Scattered Clouds
6:52 AM 59.0 °F 51.8 °F 77% 29.80 in 15.0 mi NNW 5.8 mph - N/A   Scattered Clouds
7:22 AM 59.0 °F 51.8 °F 77% 30.30 in 10.0 mi NNW 5.8 mph - N/A   Scattered Clouds
7:50 AM 59.0 °F 50.0 °F 72% 30.30 in 8.0 mi North 4.6 mph - N/A   Scattered Clouds
8:21 AM 59.0 °F 50.0 °F 72% 30.30 in 8.0 mi NNW 5.8 mph - N/A   Scattered Clouds
8:42 AM 60.8 °F 50.0 °F 68% 30.30 in 8.0 mi NNW 8.1 mph - N/A   Scattered Clouds
9:21 AM 62.6 °F 48.2 °F 59% 30.32 in 10.0 mi NNW 5.8 mph - N/A   Scattered Clouds
9:44 AM 64.4 °F 50.0 °F 59% 29.82 in 12.0 mi WSW 10.4 mph - N/A   Scattered Clouds
10:21 AM 66.2 °F 50.0 °F 56% 30.32 in 15.0 mi West 6.9 mph - N/A   Scattered Clouds
10:45 AM 66.2 °F 50.0 °F 56% 30.32 in 15.0 mi Calm Calm - N/A   Scattered Clouds
11:44 AM 68.0 °F 50.0 °F 52% 30.30 in 15.0 mi NW 4.6 mph - N/A   Scattered Clouds
12:49 PM 69.8 °F 50.0 °F 49% 29.74 in 15.0 mi North 17.3 mph - N/A   Scattered Clouds
1:45 PM 71.6 °F 50.0 °F 46% 30.25 in 15.0 mi North 6.9 mph - N/A   Mostly Cloudy
2:43 PM 73.4 °F 50.0 °F 44% 30.23 in 15.0 mi North 10.4 mph - N/A   Mostly Cloudy
3:35 PM 77.0 °F 50.0 °F 39% 30.21 in 15.0 mi NNE 13.8 mph - N/A   Mostly Cloudy
3:48 PM 77.0 °F 50.0 °F 39% 29.64 in 15.0 mi North 12.7 mph - N/A   Mostly Cloudy
4:47 PM 77.0 °F 48.2 °F 36% 30.18 in 15.0 mi North 16.1 mph - N/A   Mostly Cloudy
5:49 PM 75.2 °F 48.2 °F 38% 30.17 in 15.0 mi North 18.4 mph - N/A   Mostly Cloudy
6:56 PM 71.6 °F 50.0 °F 46% 29.63 in 15.0 mi NNE 23.0 mph 34.5 mph N/A   Mostly Cloudy
7:27 PM 68.0 °F 50.0 °F 52% 30.21 in 15.0 mi NE 18.4 mph - N/A   Mostly Cloudy
7:50 PM 66.2 °F 50.0 °F 56% 30.23 in 15.0 mi NNE 11.5 mph - N/A   Mostly Cloudy
8:46 PM 66.2 °F 46.4 °F 49% 30.24 in 15.0 mi North 13.8 mph - N/A   Mostly Cloudy
9:48 PM 64.4 °F 48.2 °F 56% 29.75 in 15.0 mi North 11.5 mph - N/A   Mostly Cloudy
10:52 PM 62.6 °F 48.2 °F 59% 30.29 in 15.0 mi NNW 12.7 mph - N/A   Scattered Clouds
11:47 PM 62.6 °F 51.8 °F 68% 30.31 in 15.0 mi NNW 6.9 mph - N/A   Partly Cloudy